Weather History for KCRP - April, 2012

Change the Weather History Date:

Monday, April 16, 2012

  Actual Average Record
Temperature  
Mean Temperature 73 °F 72 °F  
Max Temperature 79 °F 82 °F 95 °F (1987)
Min Temperature 67 °F 63 °F 44 °F (2014)
Degree Days  
Heating Degree Days 0 0  
Month to date heating degree days 0 15  
Since 1 July heating degree days 611 896  
Cooling Degree Days 8 8  
Month to date cooling degree days 226 109  
Year to date cooling degree days 629 300  
Growing Degree Days 20 (Base 50)    
Moisture  
Dew Point 68 °F    
Average Humidity 86    
Maximum Humidity 97    
Minimum Humidity 74    
Precipitation  
Precipitation 2.16 in 0.07 in 2.16 in (2012)
Month to date precipitation 2.57 0.90  
Year to date precipitation 8.46 6.26  
Snow  
Snow 0.00 in - - ()
Month to date snowfall 0.0  
Since 1 July snowfall 0.0  
Snow Depth 0.00 in    
Sea Level Pressure  
Sea Level Pressure 29.94 in    
Wind  
Wind Speed 13 mph (NE)    
Max Wind Speed 32 mph    
Max Gust Speed 37 mph    
Visibility 8 miles    
Events Fog , Rain , Thunderstorm    
T = Trace of Precipitation, MM = Missing Value Source: NWS Daily Summary

Daily Weather History Graph

Daily Weather History Graph

Search for Another Location

Airport or City:

Trip Planner

Search our weather history database for the weather conditions in past years. The results will help you decide how hot, cold, wet, or windy it might be!

Date:

Astronomy

Apr. 16, 2012 Rise Set
Actual Time 7:03 AM CDT 7:56 PM CDT
Civil Twilight 6:39 AM CDT 8:20 PM CDT
Nautical Twilight 6:11 AM CDT 8:48 PM CDT
Astronomical Twilight 5:42 AM CDT 9:17 PM CDT
Moon 4:11 AM CDT (4/16) 4:11 PM CDT (4/16)
Length of Visible Light 13h 40m
Length of Day
12h 52m
Waning Crescent, 19% of the Moon is Illuminated
Apr 16
Waning Crescent
Apr 21
New
Apr 29
First Quarter
May 5
Full
May 12
Last Quarter

Hourly Weather History & Observations

Time (CDT) Temp. Dew Point Humidity Pressure Visibility Wind Dir Wind Speed Gust Speed Precip Events Conditions
12:47 AM 78.8 °F 73.4 °F 83% 29.89 in 10.0 mi SE 9.2 mph - 0.00 in Rain Light Rain
12:51 AM 79.0 °F 73.0 °F 82% 29.88 in 10.0 mi SSE 9.2 mph - 0.00 in   Overcast
1:22 AM 78.8 °F 73.4 °F 83% 29.88 in 8.0 mi SSE 10.4 mph 16.1 mph 0.00 in Rain Light Rain
1:51 AM 78.1 °F 73.9 °F 87% 29.87 in 9.0 mi SSE 3.5 mph - 0.00 in Rain Light Rain
2:03 AM 73.4 °F 69.8 °F 88% 29.86 in 8.0 mi NNE 15.0 mph - 0.00 in Rain Light Rain
2:22 AM 69.8 °F 68.0 °F 94% 29.85 in 10.0 mi NE 15.0 mph - 0.00 in   Overcast
2:46 AM 69.8 °F 68.0 °F 94% 29.86 in 10.0 mi NE 13.8 mph - 0.00 in Rain Light Rain
2:51 AM 70.0 °F 68.0 °F 93% 29.85 in 10.0 mi NE 18.4 mph - 0.00 in Rain Light Rain
3:45 AM 71.6 °F 69.8 °F 94% 29.87 in 6.0 mi NNE 8.1 mph - 0.16 in Rain , Thunderstorm Thunderstorms and Rain
3:51 AM 71.1 °F 69.1 °F 93% 29.88 in 6.0 mi NNE 9.2 mph - 0.18 in Rain , Thunderstorm Thunderstorms and Rain
3:57 AM 71.6 °F 69.8 °F 94% 29.87 in 2.5 mi NNE 12.7 mph - 0.11 in Rain , Thunderstorm Heavy Thunderstorms and Rain
4:41 AM 71.6 °F 69.8 °F 94% 29.88 in 8.0 mi NE 3.5 mph - 0.65 in Rain , Thunderstorm Light Thunderstorms and Rain
4:51 AM 73.0 °F 71.1 °F 93% 29.87 in 9.0 mi NNE 4.6 mph - 0.65 in Rain , Thunderstorm Light Thunderstorms and Rain
5:51 AM 72.0 °F 70.0 °F 93% 29.88 in 7.0 mi NNE 13.8 mph - 0.13 in Rain , Thunderstorm Thunderstorms and Rain
6:30 AM 71.6 °F 69.8 °F 94% 29.89 in 10.0 mi NE 11.5 mph - 0.04 in Rain , Thunderstorm Light Thunderstorms and Rain
6:51 AM 72.0 °F 69.1 °F 91% 29.90 in 9.0 mi ENE 5.8 mph - 0.04 in Rain , Thunderstorm Light Thunderstorms and Rain
7:37 AM 71.6 °F 69.8 °F 94% 29.92 in 10.0 mi ENE 6.9 mph - 0.00 in   Overcast
7:51 AM 72.0 °F 70.0 °F 93% 29.92 in 9.0 mi East 6.9 mph - 0.00 in Thunderstorm Thunderstorm
8:51 AM 72.0 °F 69.1 °F 91% 29.93 in 8.0 mi ENE 10.4 mph - 0.01 in Thunderstorm Thunderstorm
9:06 AM 69.8 °F 66.2 °F 88% 29.93 in 10.0 mi North 16.1 mph - N/A Thunderstorm Thunderstorm
9:21 AM 69.8 °F 66.2 °F 88% 29.96 in 10.0 mi NNW 12.7 mph 23.0 mph 0.00 in Rain , Thunderstorm Light Thunderstorms and Rain
9:28 AM 69.8 °F 66.2 °F 88% 29.97 in 8.0 mi NW 8.1 mph 18.4 mph 0.00 in Rain , Thunderstorm Light Thunderstorms and Rain
9:34 AM 69.8 °F 66.2 °F 88% 29.96 in 0.8 mi Variable 5.8 mph - 0.02 in Rain , Thunderstorm Thunderstorms and Rain
9:51 AM 68.0 °F 66.9 °F 96% 29.95 in 0.5 mi NNE 29.9 mph 36.8 mph 0.86 in Fog , Rain , Thunderstorm Heavy Thunderstorms and Rain
9:58 AM 66.2 °F 66.2 °F 100% 29.96 in 1.0 mi NNE 26.5 mph 36.8 mph 0.10 in Rain , Thunderstorm Heavy Thunderstorms and Rain
10:17 AM 68.0 °F 66.2 °F 94% 29.96 in 2.0 mi NNE 21.9 mph - 0.26 in Rain , Thunderstorm Light Thunderstorms and Rain
10:23 AM 69.8 °F 66.2 °F 88% 29.96 in 3.0 mi NNE 28.8 mph 34.5 mph 0.26 in Rain , Thunderstorm Light Thunderstorms and Rain
10:51 AM 69.1 °F 64.9 °F 87% 29.97 in 10.0 mi NE 15.0 mph - 0.26 in Thunderstorm Thunderstorm
11:51 AM 70.0 °F 64.9 °F 84% 29.98 in 10.0 mi North 13.8 mph - 0.02 in Rain , Thunderstorm Light Thunderstorms and Rain
11:53 AM 69.8 °F 64.4 °F 83% 29.99 in 10.0 mi North 12.7 mph - 0.00 in Rain , Thunderstorm Light Thunderstorms and Rain
12:51 PM 69.1 °F 66.9 °F 93% 29.96 in 10.0 mi NNE 16.1 mph - 0.01 in Rain , Thunderstorm Light Thunderstorms and Rain
12:57 PM 69.8 °F 66.2 °F 88% 29.98 in 10.0 mi NNE 15.0 mph - 0.00 in Rain , Thunderstorm Light Thunderstorms and Rain
1:38 PM 69.8 °F 68.0 °F 94% 29.96 in 10.0 mi NE 15.0 mph - 0.00 in Thunderstorm Thunderstorm
1:51 PM 70.0 °F 68.0 °F 93% 29.96 in 10.0 mi NE 13.8 mph - 0.00 in Rain , Thunderstorm Light Thunderstorms and Rain
2:23 PM 71.6 °F 68.0 °F 88% 29.97 in 10.0 mi ENE 10.4 mph - 0.00 in   Overcast
2:51 PM 72.0 °F 69.1 °F 91% 29.95 in 7.0 mi NE 11.5 mph - 0.00 in Rain Light Rain
3:51 PM 72.0 °F 69.1 °F 91% 29.93 in 8.0 mi North 10.4 mph - 0.00 in   Overcast
4:41 PM 71.6 °F 68.0 °F 88% 29.92 in 10.0 mi North 12.7 mph - N/A   Overcast
4:51 PM 73.0 °F 69.1 °F 87% 29.91 in 10.0 mi NNE 13.8 mph - N/A   Overcast
5:08 PM 75.2 °F 69.8 °F 83% 29.91 in 10.0 mi NNE 15.0 mph - N/A   Mostly Cloudy
5:51 PM 75.0 °F 68.0 °F 79% 29.94 in 10.0 mi NE 13.8 mph - N/A   Mostly Cloudy
6:29 PM 75.2 °F 68.0 °F 78% 29.93 in 10.0 mi NNE 17.3 mph - N/A   Mostly Cloudy
6:51 PM 75.0 °F 66.9 °F 76% 29.95 in 10.0 mi ENE 12.7 mph - N/A   Overcast
7:31 PM 73.4 °F 66.2 °F 78% 29.97 in 10.0 mi NE 12.7 mph - N/A   Mostly Cloudy
7:51 PM 73.0 °F 66.0 °F 79% 29.98 in 10.0 mi ENE 15.0 mph 23.0 mph N/A   Mostly Cloudy
8:51 PM 72.0 °F 66.9 °F 84% 29.99 in 10.0 mi NE 13.8 mph - N/A   Scattered Clouds
9:51 PM 71.1 °F 66.0 °F 84% 30.02 in 10.0 mi NNE 11.5 mph - N/A   Scattered Clouds
10:51 PM 70.0 °F 64.9 °F 84% 30.03 in 10.0 mi NE 10.4 mph - N/A   Scattered Clouds
11:16 PM 69.8 °F 66.2 °F 88% 30.05 in 10.0 mi NE 13.8 mph - N/A   Mostly Cloudy
11:42 PM 69.8 °F 64.4 °F 83% 30.05 in 10.0 mi NNE 15.0 mph - N/A   Overcast
11:51 PM 70.0 °F 64.9 °F 84% 30.04 in 10.0 mi NNE 17.3 mph - N/A   Overcast